#timestamp,LO_Frequency,Hit,StdDev 
1702677615.4,286047001.2,N
1702677635.2,286046998.7,N
1702677655.1,286047000.8,N
1702677656.0,286047000.8,N
1702677675.8,286046998.8,N
1702677695.6,286046998.1,N
1702677715.5,286046998.4,N
1702677735.3,286046999.0,N
1702677755.2,286046998.9,N
1702677775.9,286046999.6,N
1702677795.7,286046999.1,N
1702677815.6,286046999.2,N
1702677835.4,286046999.3,N
1702677855.2,286046998.2,N
1702677875.1,286046998.5,N
1702677876.0,286046998.5,N
1702677895.8,286046998.7,N
1702677915.7,286046999.3,N
1702677935.5,286046998.9,N
1702677955.3,286046999.3,N
1702677975.2,286047000.5,N
1702677995.9,286046998.6,N
1702678015.7,286047001.0,N
1702678035.6,286046998.7,N
1702678055.4,286046998.2,N
1702678075.3,286047000.3,N
1702678095.1,286047000.0,N
1702678096.0,286047000.0,N
1702678115.8,286046998.6,N
1702678135.7,286046998.6,N
1702678155.5,286047001.1,N
1702678175.3,286046998.3,N
1702678195.2,286046998.9,N
1702678215.0,286046998.5,N
1702678215.9,286046998.5,N
1702678235.8,286047001.0,N
1702678255.6,286047001.0,N
1702678275.4,286047001.8,N
1702678295.3,286047001.6,N
1702678315.1,286046999.9,N
1702678335.8,286046999.7,N
1702678355.7,286047001.7,N
1702678375.5,286047004.1,Y
1702678395.4,286047005.4,P
1702678415.2,286047003.4,N
1702678435.0,286047005.6,N
1702678435.9,286047005.6,N
1702678455.8,286047003.2,N
1702678475.6,286047003.7,N
1702678495.5,286047003.2,N
1702678515.3,286047005.1,N
1702678535.2,286047005.1,N
1702678555.9,286047005.6,Y
1702678575.7,286047000.7,P
1702678595.6,286046999.9,N
1702678615.4,286047000.5,N
1702678635.3,286047001.1,N
1702678655.1,286046998.2,N
1702678656.0,286046998.2,N
1702678675.8,286047001.1,N
1702678695.7,286047000.4,N
1702678715.5,286046998.4,N
1702678735.3,286046998.5,N
1702678755.2,286047000.6,N
1702678775.0,286047002.7,N
1702678775.9,286047002.7,N
1702678795.8,286047000.9,N
1702678815.6,286046999.9,N
1702678835.5,286047000.7,N
1702678855.3,286047000.9,N
1702678875.1,286046998.3,N
1702678895.9,286047002.4,N
1702678915.7,286047002.8,N
1702678935.5,286047002.7,N
1702678955.4,286047001.4,N
1702678975.2,286047001.4,N
1702678995.1,286047001.5,N
1702678996.0,286047001.5,N
1702679015.8,286047001.9,N
1702679035.7,286047002.2,N
1702679055.5,286047001.4,N
1702679075.3,286047001.9,N
1702679095.2,286047001.8,N
1702679115.9,286047011.9,Y
1702679135.7,286047002.7,P
1702679155.6,286047001.9,N
1702679175.4,286047001.6,N
1702679195.3,286047001.9,N
1702679215.1,286047004.0,Y
1702679216.0,286047004.0,P
1702679235.8,286047002.8,N
1702679255.7,286047002.6,N
1702679275.5,286047001.8,N
1702679295.3,286047001.3,N
1702679315.2,286047002.5,N
1702679335.0,286047000.1,N
1702679335.9,286047000.1,N
1702679355.8,286047002.8,N
1702679375.6,286047001.8,N
1702679395.4,286047004.1,Y
1702679415.3,286047004.2,P
1702679435.1,286047004.2,P
1702679455.9,286047004.2,P
1702679475.7,286046999.7,N
1702679495.5,286047000.3,N
1702679515.4,286046998.1,N
1702679535.2,286046998.8,N
1702679555.0,286046997.0,N
1702679555.9,286046997.0,N
1702679575.8,286046997.1,N
1702679595.6,286046996.7,N
1702679615.5,286046999.2,N
1702679635.3,286046999.0,N
1702679655.1,286046998.8,N
1702679675.9,286046998.3,N
1702679695.7,286047000.6,N
1702679715.5,286046999.8,N
1702679735.4,286047000.7,N
1702679755.2,286047000.8,N
1702679775.0,286047000.7,N
1702679776.0,286047000.7,N
1702679795.8,286047002.6,N
1702679815.6,286046999.9,N
1702679835.5,286047000.3,N
1702679855.3,286047001.0,N
1702679875.1,286046998.1,N
1702679895.9,286046998.6,N
1702679915.7,286046996.8,N
1702679935.6,286046996.5,N
1702679955.4,286046999.3,N
1702679975.2,286047001.1,N
1702679995.1,286047000.4,N
1702679996.0,286047000.4,N
1702680015.8,286047002.4,N
1702680035.6,286047000.2,N
1702680055.5,286047000.1,N
1702680075.3,286047000.2,N
1702680095.2,286047000.1,N
1702680115.9,286046999.7,N
1702680135.7,286046999.9,N
1702680155.6,286047000.0,N
1702680175.4,286047001.2,N
1702680195.3,286046998.9,N
1702680215.1,286046998.9,N
1702680216.0,286046998.9,N
1702680235.8,286046997.7,N
1702680255.7,286046999.0,N
1702680275.5,286047000.7,N
1702680325.4,286046999.4,E
1702680335.3,286047000.8,N
1702680355.1,286047000.1,P
1702680375.9,286047000.5,N
1702680395.7,286046999.9,N
1702680415.6,286047002.8,Y
1702680435.4,286046998.7,P
1702680455.2,286047000.7,N
1702680475.1,286046998.5,N
1702680476.0,286046998.5,N
1702680495.8,286046999.0,N
1702680515.7,286046998.4,N
1702680535.5,286046998.8,N
1702680555.3,286046999.9,N
1702680575.2,286047000.8,N
1702680595.9,286046998.7,N
1702680615.7,286046999.5,N
1702680635.6,286046997.4,Y
1702680655.4,286046998.8,P
1702680675.3,286047000.4,N
1702680695.1,286047000.2,N
1702680696.0,286047000.2,N
1702680715.8,286047000.2,N
1702680735.7,286047001.0,N
1702680755.5,286047000.6,N
1702680775.3,286047001.1,N
1702680795.2,286046998.3,N
1702680815.0,286047000.7,N
1702680815.9,286047000.7,N
1702680835.8,286046999.8,N
1702680855.6,286046999.7,N
1702680875.4,286047003.6,Y
1702680895.3,286047002.6,P
1702680915.1,286047004.2,P
1702680935.9,286047001.5,N
1702680955.7,286047003.9,N
1702680975.5,286047003.9,N
1702680995.4,286047003.0,N
1702681015.2,286047003.2,N
1702681035.0,286047001.8,N
1702681035.9,286047001.8,N
1702681055.8,286047002.0,N
1702681075.6,286047001.4,N
1702681095.5,286046999.7,N
1702681115.3,286047002.4,N
1702681135.1,286047002.3,N
1702681155.9,286047000.2,N
1702681175.7,286047002.6,N
1702681195.5,286047002.6,N
